Overview Statistics Trail Chart Weather Telemetry Raw packets
 

This is the latest recevied weather packets stored in our database for station/object 9A7DI-13. If no packets are shown the sender has not sent any weather packets the latest 10 day(s).

<< 17 18 19 20 21 22 23 >>
Time Temp. Humidity Pressure Rain* Wind** Luminosity Snow
1788400004 15° C 86% 1027.5 hPa - - - -
1788399404 15° C 88% 1027.5 hPa - - - -
1788398804 14.44° C 87% 1027.5 hPa - - - -
1788398204 15° C 87% 1027.5 hPa - - - -
1788397604 15° C 85% 1027.7 hPa - - - -
1788397004 15.56° C 84% 1027.7 hPa - - - -
1788396404 15.56° C 84% 1027.7 hPa - - - -
1788395804 15.56° C 84% 1027.7 hPa - - - -
1788395204 15.56° C 84% 1027.7 hPa - - - -
1788394604 15.56° C 84% 1027.6 hPa - - - -
1788394004 15.56° C 86% 1027.6 hPa - - - -
1788393404 15° C 86% 1027.5 hPa - - - -
1788392804 15.56° C 86% 1027.6 hPa - - - -
1788392204 15.56° C 85% 1027.7 hPa - - - -
1788391604 15.56° C 84% 1027.7 hPa - - - -
1788391004 16.11° C 81% 1027.7 hPa - - - -
1788390404 16.11° C 81% 1027.8 hPa - - - -
1788389804 16.67° C 80% 1027.8 hPa - - - -
1788389204 16.67° C 79% 1027.9 hPa - - - -
1788388604 16.67° C 80% 1027.9 hPa - - - -
1788388004 16.67° C 81% 1027.8 hPa - - - -
1788387404 16.67° C 80% 1027.7 hPa - - - -
1788386804 17.22° C 78% 1027.6 hPa - - - -
1788386204 17.22° C 76% 1027.6 hPa - - - -
1788385604 17.22° C 76% 1027.6 hPa - - - -

* Rain since midnight (hover to see other rain measurements)
** Current wind speed in m/s (hover to see current wind gust speed)